AirNav   Everest Fuels
 
 473 users online  

4PN3 Gallatin Fuel Heliport
Masontown, Pennsylvania, USA

GOING TO MASONTOWN?


FAA INFORMATION EFFECTIVE 17 JUNE 2021

Location

FAA Identifier: 4PN3
Lat/Long: 39-51-59.2740N 079-57-02.1970W
39-51.987900N 079-57.036617W
39.8664650,-79.9506103
(estimated)
Elevation: 980 ft. / 299 m (estimated)
Variation: 07W (1985)
From city: 2 miles NW of MASONTOWN, PA
Time zone: UTC -4 (UTC -5 during Standard Time)
Zip code: 15320

Heliport Operations

Heliport use: Private use. Permission required prior to landing
Activation date: 08/1977
Control tower: no
ARTCC: CLEVELAND CENTER
FSS: ALTOONA FLIGHT SERVICE STATION
Attendance: IREG
Wind indicator: yes
Segmented circle: no

Heliport Communications

WX ASOS at MGW (13 nm S): 120.675 (304-296-7103)
WX AWOS-3P at VVS (15 nm E): 133.325 (724-626-8745)

Nearby radio navigation aids

VOR radial/distance  VOR name  Freq  Var
MGWr352/19.0MORGANTOWN VOR/DME111.6005W
AGCr179/25.1ALLEGHENY VOR/DME110.0009W
IHDr263/28.0INDIAN HEAD VORTAC108.2006W
HLGr137/36.9WHEELING VOR/DME112.2007W
CKBr026/39.6CLARKSBURG VOR/DME112.6004W

 
NDB name  Hdg/Dist  Freq  Var  ID
CAMOR272/9.529908WVV ...- ...-

Heliport Services

Airframe service: NONE
Powerplant service: NONE
Bottled oxygen: NONE
Bulk oxygen: NONE

Runway Information

Helipad H1

Dimensions: 60 x 50 ft. / 18 x 15 m
Surface: asphalt, in fair condition
Operational restrictions: HELIPAD APCH EAST TO WEST.
Latitude: 39-51.987900N
Longitude: 079-57.036617W
Elevation: 980.0 ft.
Traffic pattern: leftleft
Markings: none, in fair condition
Runway end identifier lights: no

Heliport Ownership and Management from official FAA records

Ownership: Privately-owned
Owner: GALLATIN FUEL, INC.
250 W MAIN
UNIONTOWN, PA 15401
Phone 412-966-7546
Manager: JOHN H. BAILY
PO BOX 355
CARMICHAELS, PA 15320
Phone 412-966-5435

Heliport Operational Statistics

Aircraft based on the field: 1
Helicopters: 1
    

Additional Remarks

FOR CD CTC CLARKSBURG APCH AT 304-842-2011, WHEN APCH CLSD CTC CLEVELAND ARTCC AT 440-774-0226.

Instrument Procedures

There are no published instrument procedures at 4PN3.

Some nearby airports with instrument procedures:

KWAY - Greene County Airport (9 nm W)
KMGW - Morgantown Municipal Airport-Walter L. Bill Hart Field (13 nm S)
KVVS - Joseph A Hardy Connellsville Airport (15 nm E)
KFWQ - Rostraver Airport (21 nm N)
KAFJ - Washington County Airport (22 nm NW)
 
Loc | Ops | Rwys | IFR | FBO | Links
Com | Nav | Svcs | Stats | Notes
Area around 4PN3 (Gallatin Fuel Heliport)
 
Road maps at: MapQuest Bing Google
 
Aerial photo
No photo
 
Sectional chart

 
Airport distance calculator
Flying to Gallatin Fuel Heliport? Find the distance to fly.

From to 4PN3

Sunrise and sunset
Times for 22-Jun-2021
 Local
(UTC-4)
 Zulu
(UTC)
Morning civil twilight05:2009:20
Sunrise05:5309:53
Sunset20:5100:51
Evening civil twilight21:2401:24

Current date and time
Zulu (UTC)  22-Jun-2021 06:09:40
Local (UTC-4)  22-Jun-2021 02:09:40
 
METAR
KMGW 
13nm S 
220553Z AUTO 02004KT 4SM -RA BR BKN003 BKN009 OVC022 17/17 A2979 RMK AO2 CIG 002V006 SLP079 P0056 60137 T01720167 10206 20172 53003
KVVS 
15nm E 
211520Z AUTO RMK AO2
KAFJ 
21nm NW 
220556Z AUTO 31005KT 10SM -RA FEW049 OVC075 17/16 A2982 RMK AO2 RAE02B40 SLP089 P0000 60006 T01670156 10206 20167 51009
KP53 
21nm N 
220556Z AUTO 18005KT 06/04 A2985 RMK AO1 SLP112 T00610044 10128 20061 58002
TAF
KMGW 
13nm S 
220529Z 2206/2306 01008KT 1SM +RA BR BKN004 OVC010 FM221000 32004KT P6SM VCSH OVC020 FM221600 33005KT P6SM BKN035
NOTAMs
Click for the latest NOTAMs
NOTAMs are issued by the DoD/FAA and will open in a separate window not controlled by AirNav.

 

 
 

Would you like to see your business listed on this page?

 If your business provides an interesting product or service to pilots, flight crews, aircraft, or users of the Gallatin Fuel Heliport, you should consider listing it here.  To start the listing process, click on the button below
 
Add a business
 

Other Pages about Gallatin Fuel Heliport

Update a link
 
Copyright © AirNav, LLC. All rights reserved. Privacy Policy  Contact